Regional Weather Roundup
Issued by NWS

Home | Current Version | Previous Version | Graphics & Text | Print | Product List | Glossary On
Versions: 1 2 3 4 5 6 7 8 9 10 11 12 13 14 15 16 17 18 19 20 21 22 23 24 25 26 27 28 29 30 31 32 33 34 35 36 37 38 39 40 41 42 43 44 45 46 47 48 49 50
000
ASUS44 KMEG 192000
RWRTN
TENNESSEE HOURLY STATE WEATHER ROUNDUP
NATIONAL WEATHER SERVICE MEMPHIS TN
300 PM CDT FRI SEP 19 2014

TNZ002-004-019-021-049-052-054-088>092-192100-
WEST TENNESSEE

CITY           SKY/WX    TMP DP  RH WIND       PRES   REMARKS
MEMPHIS INTL   PTSUNNY   84  66  54 SE6       30.00F
NWS MEMPHIS      N/A     83 N/A N/A MISG        N/A
JACKSON        SUNNY     83  66  56 S7        30.01F
DYERSBURG      MOSUNNY   81  59  47 SE3       30.02F
UNION CITY     MOSUNNY   81  63  54 CALM      30.01F
PARIS          PTSUNNY   79  61  53 CALM      30.03F
SAVANNAH       CLOUDY    84  66  54 VRB3      30.01F
$$

TNZ008-025-027-028-033-062-065-066-192100-
NORTH MIDDLE TENNESSEE

CITY           SKY/WX    TMP DP  RH WIND       PRES   REMARKS
NASHVILLE      MOSUNNY   87  61  41 VRB5      30.03F
CLARKSVILLE    MOSUNNY   83  60  45 SE7       30.02F
COOKEVILLE     MOSUNNY   82  63  51 CALM      30.05F
CROSSVILLE     PTSUNNY   77  59  53 S5        30.11F
$$

TNZ061-075-076-078-094-096-097-192100-
SOUTH MIDDLE TENNESSEE

CITY           SKY/WX    TMP DP  RH WIND       PRES   REMARKS
TULLAHOMA      MOSUNNY   81  63  54 SE6       30.05F
WINCHESTER     MOSUNNY   84  64  51 S12       30.04F
SHELBYVILLE    MOSUNNY   88  66  48 VRB5      30.04F HX  90
$$

TNZ017-018-042-046-047-192100-
NORTHEAST TENNESSEE

CITY           SKY/WX    TMP DP  RH WIND       PRES   REMARKS
TRI CITIES     PTSUNNY   79  58  48 E10G17    30.11S
ELIZABETHTON   CLEAR     75  61  60 E10       30.14S
$$

TNZ012-013-036-069-073-074-192100-
CENTRAL EAST TENNESSEE

CITY           SKY/WX    TMP DP  RH WIND       PRES   REMARKS
KNOXVILLE      MOSUNNY   85  60  42 N8        30.05F
OAK RIDGE      MOSUNNY   82  58  43 CALM      30.08F
GATLINBURG     CLEAR     82  57  42 CALM      30.06S
$$

TNZ083-085-099-192100-
SOUTHEAST TENNESSEE

CITY           SKY/WX    TMP DP  RH WIND       PRES   REMARKS
CHATTANOOGA    PTSUNNY   83  63  50 E5        30.04F
$$

SKY/WX REPORTED AS FAIR MEANS FEW OR NO CLOUDS BELOW
12 THOUSAND FEET.




USA.gov is the U.S. government's official web portal to all federal, state and local government web resources and services.